| time (UTC) | temp C | wind direction | speed KPH | gust KPH | rain 1hr cm | rain 24hr cm | rain mn cm | humidity % | barometer mb |
| 20260506033016 | 21 | 225 | 1.6 | 11.3 | 0.00 | 0.00 | 0.00 | 58 | 1013.0 |
| 20260506031516 | 21 | 248 | 1.6 | 4.8 | 0.00 | 0.00 | 0.00 | 58 | 1013.0 |
| 20260506030016 | 21 | 225 | 1.6 | 9.7 | 0.00 | 0.00 | 0.00 | 56 | 1013.0 |
| 20260506024516 | 21 | 225 | 1.6 | 12.9 | 0.00 | 0.00 | 0.00 | 56 | 1012.9 |
| 20260506023016 | 21 | 180 | 1.6 | 8.0 | 0.00 | 0.00 | 0.00 | 55 | 1013.0 |
| 20260506021516 | 21 | 225 | 1.6 | 4.8 | 0.00 | 0.00 | 0.00 | 55 | 1013.0 |
| 20260506020016 | 22 | 248 | 1.6 | 11.3 | 0.00 | 0.00 | 0.00 | 54 | 1012.9 |
| 20260506014516 | 22 | 180 | 1.6 | 9.7 | 0.00 | 0.00 | 0.00 | 53 | 1012.7 |
| 20260506013016 | 22 | 203 | 1.6 | 11.3 | 0.00 | 0.00 | 0.00 | 52 | 1012.7 |
| 20260506011536 | 22 | 158 | 1.6 | 12.9 | 0.00 | 0.00 | 0.00 | 52 | 1012.4 |
| 20260506010016 | 22 | 180 | 1.6 | 9.7 | 0.00 | 0.00 | 0.00 | 51 | 1012.4 |
| 20260506004516 | 23 | 225 | 1.6 | 4.8 | 0.00 | 0.00 | 0.00 | 50 | 1012.2 |
| 20260506003016 | 23 | 158 | 1.6 | 12.9 | 0.00 | 0.00 | 0.00 | 48 | 1012.1 |
| 20260506001515 | 23 | 158 | 1.6 | 4.8 | 0.00 | 0.00 | 0.00 | 48 | 1011.9 |
| 20260506000015 | 24 | 68 | 1.6 | 3.2 | 0.00 | 0.00 | 0.00 | 45 | 1011.8 |
| 20260505234516 | 24 | 225 | 1.6 | 8.0 | 0.00 | 0.00 | 0.00 | 44 | 1011.7 |
| 20260505233016 | 25 | 225 | 1.6 | 9.7 | 0.00 | 0.00 | 0.00 | 43 | 1011.7 |
| 20260505231515 | 25 | 158 | 1.6 | 11.3 | 0.00 | 0.00 | 0.00 | 41 | 1011.7 |
| 20260505230016 | 26 | 158 | 1.6 | 8.0 | 0.00 | 0.00 | 0.00 | 40 | 1011.7 |
| 20260505224515 | 26 | 180 | 1.6 | 6.4 | 0.00 | 0.00 | 0.00 | 37 | 1011.7 |
| 20260505223016 | 27 | 68 | 1.6 | 8.0 | 0.00 | 0.00 | 0.00 | 35 | 1011.8 |
| 20260505221515 | 27 | 248 | 1.6 | 6.4 | 0.00 | 0.00 | 0.00 | 35 | 1011.8 |
| 20260505220015 | 27 | 270 | 3.2 | 12.9 | 0.00 | 0.00 | 0.00 | 34 | 1011.6 |
| 20260505214515 | 27 | 270 | 3.2 | 11.3 | 0.00 | 0.00 | 0.00 | 33 | 1011.5 |
| 20260505213015 | 27 | 225 | 3.2 | 8.0 | 0.00 | 0.00 | 0.00 | 34 | 1011.4 |
| 20260505211515 | 27 | 225 | 1.6 | 8.0 | 0.00 | 0.00 | 0.00 | 34 | 1011.4 |
| 20260505210015 | 27 | 225 | 3.2 | 17.7 | 0.00 | 0.00 | 0.00 | 35 | 1011.5 |
| 20260505204515 | 27 | 225 | 3.2 | 11.3 | 0.00 | 0.00 | 0.00 | 33 | 1011.4 |
| 20260505203015 | 28 | 225 | 3.2 | 8.0 | 0.00 | 0.00 | 0.00 | 32 | 1011.4 |
| 20260505201515 | 28 | 248 | 3.2 | 19.3 | 0.00 | 0.00 | 0.00 | 31 | 1011.4 |
| 20260505200015 | 28 | 225 | 3.2 | 14.5 | 0.00 | 0.00 | 0.00 | 32 | 1011.7 |
| 20260505194535 | 28 | 203 | 3.2 | 11.3 | 0.00 | 0.00 | 0.00 | 30 | 1011.8 |
| 20260505193017 | 28 | 225 | 1.6 | 8.0 | 0.00 | 0.00 | 0.00 | 33 | 1012.0 |
| 20260505191538 | 28 | 248 | 3.2 | 12.9 | 0.00 | 0.00 | 0.00 | 30 | 1012.1 |
| 20260505190017 | 28 | 225 | 3.2 | 14.5 | 0.00 | 0.00 | 0.00 | 30 | 1012.6 |
| 20260505184537 | 27 | 225 | 3.2 | 9.7 | 0.00 | 0.00 | 0.00 | 33 | 1012.6 |
| 20260505183017 | 27 | 338 | 3.2 | 14.5 | 0.00 | 0.00 | 0.00 | 34 | 1012.8 |
| 20260505181537 | 27 | 248 | 3.2 | 9.7 | 0.00 | 0.00 | 0.00 | 35 | 1013.0 |
| 20260505180017 | 27 | 293 | 3.2 | 11.3 | 0.00 | 0.00 | 0.00 | 37 | 1013.1 |
| 20260505174517 | 27 | 315 | 3.2 | 12.9 | 0.00 | 0.00 | 0.00 | 38 | 1013.2 |
| 20260505173017 | 26 | 225 | 3.2 | 9.7 | 0.00 | 0.00 | 0.00 | 40 | 1013.5 |
| 20260505171557 | 26 | 338 | 3.2 | 9.7 | 0.00 | 0.00 | 0.00 | 40 | 1013.5 |
| 20260505170017 | 26 | 180 | 3.2 | 12.9 | 0.00 | 0.00 | 0.00 | 42 | 1013.8 |
| 20260505164537 | 26 | 158 | 3.2 | 16.1 | 0.00 | 0.00 | 0.00 | 42 | 1014.0 |
| 20260505163017 | 27 | 203 | 3.2 | 6.4 | 0.00 | 0.00 | 0.00 | 44 | 1014.1 |
| 20260505161517 | 27 | 180 | 1.6 | 12.9 | 0.00 | 0.00 | 0.00 | 44 | 1014.3 |
| 20260505153016 | 25 | 23 | 1.6 | 12.9 | 0.00 | 0.00 | 0.00 | 49 | 1014.8 |
| 20260505151517 | 24 | 180 | 3.2 | 14.5 | 0.00 | 0.00 | 0.00 | 51 | 1014.8 |
| 20260505124536 | 16 | 0 | 1.6 | 4.8 | 0.00 | 0.00 | 0.00 | 70 | 1015.0 |
| 20260505123016 | 16 | 0 | 1.6 | 4.8 | 0.00 | 0.00 | 0.00 | 71 | 1015.0 |
| 20260505121516 | 16 | 0 | 1.6 | 6.4 | 0.00 | 0.00 | 0.00 | 72 | 1014.9 |
| 20260505120016 | 15 | 0.0 | 3.2 | 0.00 | 0.00 | 0.00 | 75 | 1014.7 | |
| 20260505114556 | 15 | 0.0 | 1.6 | 0.00 | 0.00 | 0.00 | 76 | 1014.7 | |
| 20260505113016 | 15 | 0 | 1.6 | 4.8 | 0.00 | 0.00 | 0.00 | 76 | 1014.4 |
| 20260505111516 | 14 | 0.0 | 3.2 | 0.00 | 0.00 | 0.00 | 76 | 1014.3 | |
| 20260505101516 | 15 | 0.0 | 6.4 | 0.00 | 0.00 | 0.00 | 72 | 1013.8 | |
| 20260505100016 | 15 | 0.0 | 6.4 | 0.00 | 0.00 | 0.00 | 71 | 1013.7 | |
| 20260505094536 | 15 | 0 | 1.6 | 3.2 | 0.00 | 0.00 | 0.00 | 70 | 1013.7 |
| 20260505093016 | 16 | 203 | 1.6 | 4.8 | 0.00 | 0.00 | 0.00 | 69 | 1013.7 |
| 20260505091516 | 16 | 158 | 1.6 | 4.8 | 0.00 | 0.00 | 0.00 | 69 | 1013.7 |
| 20260505090016 | 16 | 135 | 1.6 | 6.4 | 0.00 | 0.00 | 0.00 | 68 | 1013.7 |
| 20260505084516 | 16 | 248 | 1.6 | 4.8 | 0.00 | 0.00 | 0.00 | 68 | 1013.8 |
| 20260505083016 | 16 | 225 | 1.6 | 6.4 | 0.00 | 0.00 | 0.00 | 68 | 1013.6 |
| 20260505081516 | 16 | 135 | 1.6 | 11.3 | 0.00 | 0.00 | 0.00 | 67 | 1013.6 |
| 20260505080016 | 16 | 180 | 1.6 | 6.4 | 0.00 | 0.00 | 0.00 | 67 | 1013.7 |
| 20260505074516 | 16 | 225 | 1.6 | 9.7 | 0.00 | 0.00 | 0.00 | 66 | 1013.6 |
| 20260505073036 | 16 | 225 | 1.6 | 9.7 | 0.00 | 0.00 | 0.00 | 65 | 1013.4 |
| 20260505071516 | 16 | 225 | 1.6 | 3.2 | 0.00 | 0.00 | 0.00 | 65 | 1013.3 |
| 20260505070016 | 16 | 248 | 1.6 | 4.8 | 0.00 | 0.00 | 0.00 | 65 | 1013.2 |
| 20260505064516 | 16 | 248 | 1.6 | 6.4 | 0.00 | 0.00 | 0.00 | 64 | 1013.2 |
| 20260505063015 | 16 | 0.0 | 3.2 | 0.00 | 0.00 | 0.00 | 64 | 1013.1 | |
| 20260505061515 | 16 | 225 | 1.6 | 3.2 | 0.00 | 0.00 | 0.00 | 63 | 1013.1 |
| 20260505060015 | 16 | 0.0 | 3.2 | 0.00 | 0.00 | 0.00 | 63 | 1013.2 | |
| 20260505054516 | 16 | 68 | 1.6 | 4.8 | 0.00 | 0.00 | 0.00 | 62 | 1013.2 |
| 20260505053015 | 15 | 0.0 | 6.4 | 0.00 | 0.00 | 0.00 | 63 | 1013.2 | |
| 20260505051515 | 15 | 0.0 | 6.4 | 0.00 | 0.00 | 0.00 | 64 | 1013.1 | |
| 20260505041516 | 15 | 0.0 | 0.0 | 0.00 | 0.00 | 0.00 | 64 | 1012.7 | |
| 20260505040035 | 15 | 0.0 | 0.0 | 0.00 | 0.00 | 0.00 | 64 | 1012.6 | |
| 20260505034516 | 15 | 0.0 | 0.0 | 0.00 | 0.00 | 0.00 | 62 | 1012.6 |